Airfield :
LOGIN :

Register | Disclaimer

   EN    FR    IT 

 










Legend :    VFR   Marginal VFR   IFR   Intensive IFR   Very Intensive IFR
Visi :
Ceiling :
>= 8 km
>= 3000ft
5 to 8 km
1000 to 3000 ft
1500m to 5 km
500 to 1000 ft
800 to 1500m
200 to 500 ft
< 800m
< 200 ft
Symbols :   Thunderstorms  Fog  Heavy snow  Heavy precipitations  Wind > 20 kt
SIGMETs :     Misc.  Thunderstorms  Icing  Turbulence  Mountain Waves  Volcanic Ashes







- Airport Elevation : 135 ft
- IATA code : EDI
- Download approach charts


EGPH - Edinburgh

CURRENT METAR :
  • 240950Z 13007KT 9999 FEW047 15/10 Q1017

EXPIRED METARs :
  • 240920Z 11006KT 080V150 CAVOK 15/10 Q1016
  • 240850Z 13008KT 9999 FEW045 14/10 Q1016
  • 240820Z 14008KT 130V190 9999 FEW040 14/10 Q1016
  • 240750Z 14008KT 9999 FEW040 14/09 Q1016
  • 240720Z 14008KT 9999 FEW045 14/09 Q1016

TAF TAF EGPH
Valid from the 24 at 06:00 until the 25 at 06:00 UTC


240500Z 2406/2506 12006KT 9999 SCT025
PROB30
TEMPO 2412/2421 6000 -RADZ
TEMPO 2421/2506 4000 RADZ
TEMPO 2503/2506 BKN010
ATIS : +44 131 339 2823
No reported NOTAMs for that airfield.



MET'MAP, your aeronautical weather chart ! - Copyright ORBIFLY December 2007 - Disclaimer

ORBIFLY MET'MAP TEAM :

Programming & Development : Alexandra Zaïnal
Concept & Development : Baudouin d'Aumeries
Co-Development & Prog : Marc-Olivier Méhu
Technical & hardware support : Manuel Goepfert

Contact : metmap@orbifly.com




SOURCES & CREDITS :

   NOAA